RYR63FM LEMD-GCLP

Flight info

Callsign RYR63FM
Flight time N/A
Altitude 35000
Route VTB DCT INPAN DCT CRISA DCT HIJ DCT SVL DCT CLANA DCT KORNO UN857 TERTO
Aircraft B738/M-SDE2E3FGHIRWXY/LB1

Departure

Time 2026-05-06 12:19
Airport Adolfo Suárez Madrid–Barajas Airport (LEMD)

Arrival

Time N/A
Airport Gran Canaria Airport (GCLP)
Time Latitude Longitude Altitude Speed Heading
2026-05-06 12:07 40.49171 -3.58734 1989 ft 0 kts 269°
2026-05-06 12:12 40.49171 -3.58727 1990 ft 3 kts 269°
2026-05-06 12:12 40.49172 -3.58692 1989 ft 4 kts 268°
2026-05-06 12:12 40.49174 -3.58664 1988 ft 4 kts 237°
2026-05-06 12:12 40.49193 -3.58645 1987 ft 4 kts 193°
2026-05-06 12:13 40.49208 -3.58642 1988 ft 1 kts 181°
2026-05-06 12:13 40.49210 -3.58642 1988 ft 1 kts 181°
2026-05-06 12:15 40.49200 -3.58642 1989 ft 7 kts 181°
2026-05-06 12:15 40.49099 -3.58642 1990 ft 20 kts 179°
2026-05-06 12:15 40.48951 -3.58640 1992 ft 21 kts 180°
2026-05-06 12:15 40.48807 -3.58638 1993 ft 20 kts 167°
2026-05-06 12:16 40.48762 -3.58482 1994 ft 20 kts 90°
2026-05-06 12:16 40.48763 -3.58305 1995 ft 19 kts 90°
2026-05-06 12:16 40.48764 -3.58127 1996 ft 21 kts 88°
2026-05-06 12:16 40.48895 -3.58062 1994 ft 24 kts 359°
2026-05-06 12:17 40.49056 -3.58061 1992 ft 23 kts
2026-05-06 12:17 40.49212 -3.58049 1992 ft 22 kts 28°
2026-05-06 12:17 40.49320 -3.57933 1992 ft 22 kts 356°
2026-05-06 12:17 40.49479 -3.57932 1992 ft 23 kts 23°
2026-05-06 12:18 40.49511 -3.57739 1993 ft 22 kts 89°
2026-05-06 12:18 40.49547 -3.57546 1993 ft 22 kts 60°
2026-05-06 12:18 40.49689 -3.57463 1994 ft 32 kts
2026-05-06 12:18 40.50189 -3.57466 1994 ft 111 kts 360°
2026-05-06 12:19 40.51193 -3.57473 2051 ft 170 kts 360°
2026-05-06 12:19 40.52469 -3.57483 2629 ft 194 kts 360°
2026-05-06 12:19 40.53756 -3.57513 3929 ft 177 kts 359°
2026-05-06 12:19 40.54997 -3.57501 4790 ft 180 kts 10°
2026-05-06 12:20 40.56225 -3.57040 5414 ft 192 kts 17°
2026-05-06 12:20 40.57581 -3.56520 5640 ft 218 kts 16°
2026-05-06 12:20 40.59118 -3.55947 5980 ft 237 kts 15°
2026-05-06 12:20 40.60725 -3.55350 6746 ft 241 kts 15°
2026-05-06 12:21 40.62341 -3.54749 7538 ft 242 kts 15°
2026-05-06 12:21 40.63982 -3.54180 8296 ft 245 kts
2026-05-06 12:21 40.65694 -3.53961 9062 ft 248 kts
2026-05-06 12:21 40.67429 -3.53841 9826 ft 251 kts
2026-05-06 12:22 40.69183 -3.53700 10519 ft 254 kts
2026-05-06 12:22 40.70794 -3.52737 11086 ft 264 kts 42°
2026-05-06 12:22 40.71947 -3.50796 11447 ft 280 kts 56°
2026-05-06 12:22 40.73031 -3.48620 12084 ft 287 kts 56°
2026-05-06 12:23 40.74157 -3.46395 12853 ft 289 kts 56°
2026-05-06 12:23 40.75279 -3.44210 13591 ft 293 kts 55°
2026-05-06 12:23 40.76299 -3.41868 14238 ft 298 kts 71°
2026-05-06 12:23 40.76516 -3.39142 14868 ft 303 kts 99°
2026-05-06 12:24 40.75784 -3.36536 15520 ft 306 kts 122°
2026-05-06 12:24 40.74524 -3.34256 16170 ft 309 kts 128°
2026-05-06 12:24 40.73195 -3.32033 16773 ft 314 kts 128°
2026-05-06 12:24 40.71806 -3.29776 17397 ft 319 kts 136°
2026-05-06 12:25 40.69966 -3.28150 17995 ft 321 kts 161°
2026-05-06 12:25 40.67747 -3.27604 18227 ft 334 kts 185°
2026-05-06 12:25 40.65381 -3.27911 18401 ft 351 kts 189°
2026-05-06 12:25 40.62892 -3.28355 18525 ft 369 kts 190°
2026-05-06 12:26 40.60321 -3.28837 18652 ft 386 kts 190°
2026-05-06 12:26 40.57627 -3.29332 18990 ft 395 kts 190°
2026-05-06 12:26 40.54866 -3.29822 19567 ft 396 kts 190°
2026-05-06 12:26 40.52157 -3.30291 20224 ft 396 kts 190°
2026-05-06 12:27 40.49412 -3.30758 20820 ft 398 kts 191°
2026-05-06 12:27 40.46656 -3.31223 21366 ft 401 kts 191°
2026-05-06 12:27 40.43886 -3.31688 21909 ft 403 kts 191°
2026-05-06 12:27 40.41084 -3.32158 22457 ft 405 kts 191°
2026-05-06 12:28 40.38283 -3.32628 23018 ft 407 kts 192°
2026-05-06 12:28 40.35473 -3.33099 23533 ft 409 kts 192°
2026-05-06 12:28 40.32667 -3.33569 23938 ft 411 kts 192°
2026-05-06 12:28 40.29788 -3.34052 24353 ft 414 kts 192°
2026-05-06 12:29 40.26959 -3.34525 24769 ft 415 kts 192°
2026-05-06 12:29 40.24041 -3.35045 25174 ft 417 kts 193°
2026-05-06 12:29 40.21222 -3.35689 25557 ft 418 kts 195°
2026-05-06 12:29 40.18360 -3.36415 25951 ft 419 kts 195°
2026-05-06 12:30 40.15493 -3.37161 26329 ft 421 kts 195°
2026-05-06 12:30 40.12596 -3.37908 26691 ft 423 kts 195°
2026-05-06 12:30 40.09693 -3.38643 27056 ft 425 kts 195°
2026-05-06 12:30 40.06773 -3.39373 27427 ft 427 kts 195°
2026-05-06 12:31 40.03845 -3.40096 27768 ft 429 kts 195°
2026-05-06 12:31 40.00898 -3.40821 28097 ft 431 kts 195°
2026-05-06 12:31 39.97942 -3.41546 28415 ft 433 kts 195°
2026-05-06 12:31 39.94969 -3.42274 28770 ft 434 kts 195°
2026-05-06 12:32 39.92004 -3.42999 29244 ft 433 kts 195°
2026-05-06 12:32 39.89090 -3.43711 29785 ft 429 kts 195°
2026-05-06 12:32 39.86159 -3.44428 30253 ft 427 kts 195°
2026-05-06 12:32 39.83243 -3.45142 30610 ft 426 kts 195°
2026-05-06 12:33 39.80331 -3.45904 30933 ft 423 kts 201°
2026-05-06 12:33 39.77662 -3.47396 31268 ft 413 kts 216°
2026-05-06 12:33 39.75439 -3.49687 31688 ft 405 kts 227°
2026-05-06 12:33 39.73468 -3.52278 32083 ft 402 kts 229°
2026-05-06 12:34 39.71553 -3.54866 32406 ft 402 kts 229°
2026-05-06 12:34 39.69608 -3.57491 32715 ft 401 kts 229°
2026-05-06 12:34 39.67663 -3.60089 33089 ft 400 kts 228°
2026-05-06 12:34 39.65720 -3.62659 33473 ft 398 kts 228°
2026-05-06 12:35 39.63793 -3.65190 33815 ft 397 kts 228°
2026-05-06 12:35 39.61853 -3.67731 34098 ft 396 kts 228°
2026-05-06 12:35 39.59914 -3.70268 34310 ft 397 kts 228°
2026-05-06 12:35 39.57967 -3.72812 34516 ft 398 kts 227°
2026-05-06 12:36 39.56017 -3.75358 34752 ft 397 kts 228°
2026-05-06 12:36 39.54070 -3.77901 34950 ft 398 kts 228°
2026-05-06 12:36 39.50138 -3.83038 34940 ft 402 kts 227°
2026-05-06 12:37 39.46216 -3.88153 34933 ft 396 kts 227°
2026-05-06 12:37 39.42338 -3.93202 34942 ft 394 kts 227°
2026-05-06 12:38 39.38499 -3.98196 34945 ft 393 kts 227°
2026-05-06 12:38 39.34634 -4.03213 34940 ft 393 kts 227°
2026-05-06 12:39 39.30769 -4.08223 34942 ft 393 kts 227°
2026-05-06 12:39 39.26927 -4.13194 34938 ft 393 kts 227°
2026-05-06 12:40 39.23048 -4.18204 34943 ft 394 kts 227°
2026-05-06 12:40 39.19191 -4.23178 34937 ft 395 kts 227°
2026-05-06 12:41 39.15303 -4.28185 34937 ft 395 kts 227°
2026-05-06 12:41 39.11397 -4.33205 34935 ft 396 kts 227°
2026-05-06 12:42 39.07507 -4.38197 34942 ft 396 kts 227°
2026-05-06 12:42 39.03587 -4.43219 34937 ft 397 kts 227°
2026-05-06 12:43 38.99696 -4.48198 34940 ft 396 kts 227°
2026-05-06 12:43 38.95781 -4.53198 34937 ft 396 kts 227°
2026-05-06 12:44 38.91873 -4.58177 34934 ft 395 kts 227°
2026-05-06 12:44 38.87953 -4.63156 34933 ft 395 kts 227°
2026-05-06 12:45 38.84703 -4.67281 34932 ft 394 kts 227°
2026-05-06 12:46 38.78876 -4.74663 34934 ft 393 kts 227°
2026-05-06 12:46 38.74985 -4.79584 34937 ft 392 kts 227°
2026-05-06 12:47 38.71101 -4.84488 34930 ft 391 kts 227°
2026-05-06 12:47 38.67239 -4.89358 34931 ft 391 kts 227°